Location: Kalisz
(51.7636°N, 18.0893°E)
Time: 08:26:30
(UTC+02:00)

ISS - Pass Details

Date: 25 March 2019
Orbit: 408 x 410 km, 51.6° (Epoch: 21 April)

Event Time Altitude Azimuth Distance (km) Brightness Sun altitude
Rises 18:37:55 0° 220° (SW) 2,328 0.5 -5.3°
Reaches altitude 10° 18:40:11 10° 208° (SSW) 1,470 -0.8 -5.7°
Maximum altitude 18:43:01 27° 149° (SSE) 834 -2.6 -6.1°
Drops below altitude 10° 18:45:51 10° 90° (E) 1,475 -1.6 -6.5°
Enters shadow 18:46:15 - 86° (E) 1,621 -1.4 -6.6°
